Regional Weather Roundup
Issued by NWS

Home | Current Version | Previous Version | Text Only | Print | Product List | Glossary On
Versions: 1 2 3 4 5 6 7 8 9 10 11 12 13 14 15 16 17 18 19 20 21 22 23 24 25 26 27 28 29 30 31 32 33 34 35 36 37 38 39 40 41 42 43 44 45 46 47 48 49 50
000
ASUS43 KLMK 292210
RWRKY
KENTUCKY REGIONAL WEATHER ROUNDUP
NATIONAL WEATHER SERVICE LOUISVILLE KY
600 PM EDT FRI AUG 29 2014

NOTE "FAIR" INDICATES FEW OR NO CLOUDS BELOW 12,000 FEET
WITH NO SIGNIFICANT WEATHER AND/OR OBSTRUCTIONS TO VISIBILITY.

KYZ001>023-026-027-061>063-070>075-292300-
WESTERN AND SOUTH CENTRAL KENTUCKY

CITY           SKY/WX    TMP DP  RH WIND       PRES   REMARKS
PADUCAH        SUNNY     91  65  41 SW3       29.92R HX  93
HENDERSON      MOSUNNY   91  63  38 S7        29.92S HX  92
OWENSBORO      NOT AVBL
HOPKINSVILLE   MOSUNNY   88  65  46 S9        29.96S
BOWLING GREEN  PTSUNNY   88  61  40 S10       29.98S
GLASGOW        PTSUNNY   88  59  37 S7        29.99F
$$

KYZ024-025-028>034-038-045-046-053-292300-
NORTH CENTRAL KENTUCKY

CITY           SKY/WX    TMP DP  RH WIND       PRES   REMARKS
LOUISVILLE/SDF MOSUNNY   90  61  37 S12       29.97S HX  90
LOUISVILLE/LOU SUNNY     88  61  40 S8        29.98S
FORT KNOX      MOSUNNY   88  64  44 S10       29.98R
$$

KYZ035>037-039>044-047>052-055>060-089>105-292300-
NORTHEAST KENTUCKY

CITY           SKY/WX    TMP DP  RH WIND       PRES   REMARKS
LEXINGTON      SUNNY     90  65  43 SW7       30.02R HX  92
COVINGTON      NOT AVBL
FRANKFORT      SUNNY     89  65  44 S9        30.00R HX  91
$$

KYZ054-064>069-076>088-106>120-292300-
SOUTHEAST KENTUCKY

CITY           SKY/WX    TMP DP  RH WIND       PRES   REMARKS
JACKSON        MOSUNNY   86  70  58 SE3       30.06R HX  90
LONDON         SUNNY     89  66  46 SW6       30.05S HX  91
SOMERSET       SUNNY     88  61  40 W7        30.04R
MIDDLESBORO    SUNNY     90  67  47 SW3       30.05S HX  93
MONTICELLO     CLEAR     90  68  48 SW7       30.04F HX  94
$$




USA.gov is the U.S. government's official web portal to all federal, state and local government web resources and services.